| time (UTC) | temp C | wind direction | speed KPH | gust KPH | rain 1hr cm | rain 24hr cm | rain mn cm | humidity % | barometer mb |
| 20260504001106 | 16 | 0 | 1.6 | 12.9 | 0.00 | 0.00 | 0.00 | 41 | 1010.4 |
| 20260504000650 | 16 | 0 | 3.2 | 12.9 | 0.00 | 0.00 | 0.00 | 39 | 1010.5 |
| 20260504000252 | 16 | 0 | 3.2 | 12.9 | 0.00 | 0.00 | 0.00 | 39 | 1010.4 |
| 20260503235846 | 16 | 0 | 3.2 | 12.9 | 0.00 | 0.00 | 0.00 | 39 | 1010.5 |
| 20260503235443 | 16 | 0 | 3.2 | 12.9 | 0.00 | 0.00 | 0.00 | 37 | 1010.6 |
| 20260503235032 | 16 | 206 | 3.2 | 8.0 | 0.00 | 0.00 | 0.00 | 39 | 1010.6 |
| 20260503234618 | 16 | 0 | 3.2 | 8.0 | 0.00 | 0.00 | 0.00 | 37 | 1010.6 |
| 20260503234205 | 16 | 200 | 3.2 | 8.0 | 0.00 | 0.00 | 0.00 | 37 | 1010.6 |
| 20260503233750 | 16 | 0 | 3.2 | 19.3 | 0.00 | 0.00 | 0.00 | 38 | 1010.6 |
| 20260503233347 | 16 | 233 | 3.2 | 19.3 | 0.00 | 0.00 | 0.00 | 38 | 1010.5 |
| 20260503232936 | 16 | 213 | 4.8 | 19.3 | 0.00 | 0.00 | 0.00 | 37 | 1010.6 |
| 20260503232541 | 16 | 0 | 4.8 | 19.3 | 0.00 | 0.00 | 0.00 | 36 | 1010.5 |
| 20260503232132 | 16 | 0 | 4.8 | 19.3 | 0.00 | 0.00 | 0.00 | 36 | 1010.5 |
| 20260503231717 | 17 | 0 | 4.8 | 16.1 | 0.00 | 0.00 | 0.00 | 37 | 1010.5 |
| 20260503231302 | 17 | 0 | 3.2 | 16.1 | 0.00 | 0.00 | 0.00 | 36 | 1010.6 |
| 20260503230335 | 17 | 0 | 3.2 | 16.1 | 0.00 | 0.00 | 0.00 | 41 | 1010.6 |
| 20260503225924 | 16 | 0 | 4.8 | 16.1 | 0.00 | 0.00 | 0.00 | 42 | 1010.8 |
| 20260503225511 | 16 | 0 | 4.8 | 22.5 | 0.00 | 0.00 | 0.00 | 41 | 1010.8 |
| 20260503225055 | 17 | 0 | 4.8 | 22.5 | 0.00 | 0.00 | 0.00 | 41 | 1010.6 |
| 20260503224651 | 17 | 0 | 6.4 | 22.5 | 0.00 | 0.00 | 0.00 | 42 | 1010.7 |
| 20260503224256 | 16 | 0 | 6.4 | 22.5 | 0.00 | 0.00 | 0.00 | 44 | 1010.7 |
| 20260503223842 | 16 | 0 | 6.4 | 22.5 | 0.00 | 0.00 | 0.00 | 43 | 1010.7 |
| 20260503223441 | 16 | 0 | 6.4 | 17.7 | 0.00 | 0.00 | 0.00 | 42 | 1010.9 |
| 20260503223030 | 16 | 0 | 6.4 | 17.7 | 0.00 | 0.00 | 0.00 | 42 | 1010.9 |
| 20260503222627 | 16 | 0 | 4.8 | 12.9 | 0.00 | 0.00 | 0.00 | 41 | 1010.9 |
| 20260503222222 | 16 | 0 | 4.8 | 22.5 | 0.00 | 0.00 | 0.00 | 42 | 1010.9 |
| 20260503221829 | 17 | 0 | 4.8 | 22.5 | 0.00 | 0.00 | 0.00 | 40 | 1010.7 |
| 20260503221426 | 17 | 0 | 6.4 | 22.5 | 0.00 | 0.00 | 0.00 | 40 | 1010.7 |
| 20260503221032 | 16 | 0 | 6.4 | 22.5 | 0.00 | 0.00 | 0.00 | 41 | 1010.9 |
| 20260503220631 | 17 | 0 | 6.4 | 22.5 | 0.00 | 0.00 | 0.00 | 40 | 1010.9 |
| 20260503220232 | 17 | 0 | 4.8 | 17.7 | 0.00 | 0.00 | 0.00 | 42 | 1011.0 |
| 20260503215304 | 16 | 0 | 6.4 | 25.7 | 0.00 | 0.00 | 0.00 | 42 | 1011.0 |
| 20260503214908 | 16 | 0 | 6.4 | 25.7 | 0.00 | 0.00 | 0.00 | 45 | 1011.0 |
| 20260503214504 | 16 | 230 | 8.0 | 25.7 | 0.00 | 0.00 | 0.00 | 43 | 1011.1 |
| 20260503214055 | 16 | 0 | 6.4 | 25.7 | 0.00 | 0.00 | 0.00 | 44 | 1011.0 |
| 20260503213647 | 16 | 206 | 6.4 | 24.1 | 0.00 | 0.00 | 0.00 | 43 | 1011.0 |
| 20260503213247 | 16 | 0 | 8.0 | 24.1 | 0.00 | 0.00 | 0.00 | 46 | 1011.0 |
| 20260503212852 | 16 | 0 | 6.4 | 24.1 | 0.00 | 0.00 | 0.00 | 44 | 1010.9 |
| 20260503212447 | 16 | 0 | 6.4 | 20.9 | 0.00 | 0.00 | 0.00 | 43 | 1010.9 |
| 20260503212036 | 16 | 0 | 4.8 | 20.9 | 0.00 | 0.00 | 0.00 | 43 | 1010.9 |
| 20260503211627 | 16 | 0 | 6.4 | 20.9 | 0.00 | 0.00 | 0.00 | 41 | 1010.9 |
| 20260503211222 | 16 | 0 | 6.4 | 20.9 | 0.00 | 0.00 | 0.00 | 41 | 1010.9 |
| 20260503210816 | 16 | 0 | 6.4 | 17.7 | 0.00 | 0.00 | 0.00 | 41 | 1010.8 |
| 20260503210405 | 17 | 0 | 8.0 | 17.7 | 0.00 | 0.00 | 0.00 | 42 | 1010.8 |
| 20260503205954 | 17 | 0 | 8.0 | 17.7 | 0.00 | 0.00 | 0.00 | 39 | 1010.8 |
| 20260503205557 | 17 | 0 | 6.4 | 17.7 | 0.00 | 0.00 | 0.00 | 42 | 1011.0 |
| 20260503205200 | 17 | 0 | 4.8 | 14.5 | 0.00 | 0.00 | 0.00 | 42 | 1011.0 |
| 20260503204746 | 17 | 0 | 6.4 | 20.9 | 0.00 | 0.00 | 0.00 | 43 | 1011.0 |
| 20260503204353 | 17 | 0 | 6.4 | 20.9 | 0.00 | 0.00 | 0.00 | 42 | 1010.9 |
| 20260503203939 | 17 | 0 | 8.0 | 20.9 | 0.00 | 0.00 | 0.00 | 42 | 1011.1 |
| 20260503203538 | 16 | 0 | 8.0 | 20.9 | 0.00 | 0.00 | 0.00 | 41 | 1011.0 |
| 20260503203129 | 17 | 0 | 6.4 | 20.9 | 0.00 | 0.00 | 0.00 | 39 | 1011.1 |
| 20260503202205 | 17 | 0 | 6.4 | 30.6 | 0.00 | 0.00 | 0.00 | 40 | 1011.2 |
| 20260503201751 | 17 | 0 | 6.4 | 30.6 | 0.00 | 0.00 | 0.00 | 41 | 1011.2 |
| 20260503201358 | 16 | 0 | 8.0 | 30.6 | 0.00 | 0.00 | 0.00 | 40 | 1011.2 |
| 20260503200946 | 17 | 0 | 6.4 | 30.6 | 0.00 | 0.00 | 0.00 | 42 | 1011.4 |
| 20260503200551 | 16 | 0 | 8.0 | 30.6 | 0.00 | 0.00 | 0.00 | 40 | 1011.4 |
| 20260503200153 | 16 | 0 | 6.4 | 20.9 | 0.00 | 0.00 | 0.00 | 42 | 1011.5 |
| 20260503195226 | 16 | 0 | 6.4 | 27.4 | 0.00 | 0.00 | 0.00 | 39 | 1011.6 |
| 20260503194825 | 17 | 0 | 6.4 | 27.4 | 0.00 | 0.00 | 0.00 | 35 | 1011.7 |
| 20260503194420 | 17 | 0 | 6.4 | 27.4 | 0.00 | 0.00 | 0.00 | 36 | 1011.6 |
| 20260503194026 | 17 | 0 | 8.0 | 27.4 | 0.00 | 0.00 | 0.00 | 35 | 1011.7 |
| 20260503193048 | 17 | 0 | 8.0 | 24.1 | 0.00 | 0.00 | 0.00 | 35 | 1011.9 |
| 20260503192129 | 17 | 0 | 6.4 | 19.3 | 0.00 | 0.00 | 0.00 | 36 | 1012.1 |
| 20260503191725 | 17 | 0 | 8.0 | 19.3 | 0.00 | 0.00 | 0.00 | 33 | 1012.1 |
| 20260503190801 | 17 | 0 | 9.7 | 24.1 | 0.00 | 0.00 | 0.00 | 33 | 1012.2 |
| 20260503190404 | 17 | 0 | 9.7 | 24.1 | 0.00 | 0.00 | 0.00 | 36 | 1012.3 |
| 20260503185436 | 17 | 0 | 8.0 | 24.1 | 0.00 | 0.00 | 0.00 | 38 | 1012.4 |
| 20260503185043 | 17 | 0 | 8.0 | 24.1 | 0.00 | 0.00 | 0.00 | 39 | 1012.5 |
| 20260503184650 | 17 | 0 | 8.0 | 24.1 | 0.00 | 0.00 | 0.00 | 39 | 1012.5 |
| 20260503184240 | 17 | 0 | 8.0 | 19.3 | 0.00 | 0.00 | 0.00 | 36 | 1012.5 |
| 20260503183838 | 17 | 0 | 8.0 | 27.4 | 0.00 | 0.00 | 0.00 | 37 | 1012.5 |
| 20260503183443 | 16 | 0 | 8.0 | 27.4 | 0.00 | 0.00 | 0.00 | 38 | 1012.5 |
| 20260503183039 | 16 | 0 | 9.7 | 27.4 | 0.00 | 0.00 | 0.00 | 41 | 1012.6 |
| 20260503182635 | 16 | 0 | 9.7 | 27.4 | 0.00 | 0.00 | 0.00 | 38 | 1012.7 |
| 20260503182228 | 17 | 0 | 8.0 | 27.4 | 0.00 | 0.00 | 0.00 | 35 | 1012.8 |
| 20260503181825 | 17 | 0 | 8.0 | 22.5 | 0.00 | 0.00 | 0.00 | 40 | 1012.8 |
| 20260503181419 | 16 | 0 | 9.7 | 22.5 | 0.00 | 0.00 | 0.00 | 39 | 1012.8 |
| 20260503181004 | 16 | 0 | 9.7 | 22.5 | 0.00 | 0.00 | 0.00 | 36 | 1012.9 |
| 20260503180608 | 16 | 0 | 9.7 | 24.1 | 0.00 | 0.00 | 0.00 | 41 | 1012.8 |
| 20260503175656 | 16 | 0 | 8.0 | 24.1 | 0.00 | 0.00 | 0.00 | 38 | 1013.0 |
| 20260503175253 | 16 | 0 | 8.0 | 25.7 | 0.00 | 0.00 | 0.00 | 36 | 1013.0 |
| 20260503174848 | 16 | 0 | 8.0 | 25.7 | 0.00 | 0.00 | 0.00 | 40 | 1013.0 |
| 20260503174449 | 16 | 0 | 8.0 | 25.7 | 0.00 | 0.00 | 0.00 | 40 | 1013.1 |
| 20260503174053 | 16 | 0 | 9.7 | 25.7 | 0.00 | 0.00 | 0.00 | 38 | 1013.2 |
| 20260503173655 | 16 | 0 | 8.0 | 25.7 | 0.00 | 0.00 | 0.00 | 38 | 1013.2 |
| 20260503173303 | 16 | 0 | 8.0 | 25.7 | 0.00 | 0.00 | 0.00 | 34 | 1013.2 |
| 20260503172852 | 16 | 0 | 6.4 | 25.7 | 0.00 | 0.00 | 0.00 | 37 | 1013.1 |
| 20260503171933 | 16 | 0 | 8.0 | 20.9 | 0.00 | 0.00 | 0.00 | 37 | 1013.2 |
| 20260503171535 | 16 | 0 | 8.0 | 20.9 | 0.00 | 0.00 | 0.00 | 36 | 1013.2 |
| 20260503171122 | 16 | 0 | 6.4 | 19.3 | 0.00 | 0.00 | 0.00 | 37 | 1013.3 |
| 20260503170716 | 16 | 0 | 6.4 | 19.3 | 0.00 | 0.00 | 0.00 | 36 | 1013.4 |
| 20260503170303 | 16 | 0 | 6.4 | 19.3 | 0.00 | 0.00 | 0.00 | 38 | 1013.5 |
| 20260503160205 | 15 | 207 | 6.4 | 20.9 | 0.00 | 0.00 | 0.00 | 37 | 1014.3 |
| 20260503150601 | 13 | 0 | 4.8 | 16.1 | 0.00 | 0.00 | 0.00 | 41 | 1014.7 |
| 20260503150156 | 13 | 0 | 4.8 | 16.1 | 0.00 | 0.00 | 0.00 | 36 | 1014.7 |
| 20260503131052 | 9 | 236 | 1.6 | 9.7 | 0.00 | 0.00 | 0.00 | 51 | 1015.6 |
| 20260503130645 | 9 | 192 | 1.6 | 9.7 | 0.00 | 0.00 | 0.00 | 52 | 1015.7 |
| 20260503130229 | 9 | 225 | 1.6 | 9.7 | 0.00 | 0.00 | 0.00 | 53 | 1015.5 |
| 20260503120200 | 5 | 203 | 0.0 | 6.4 | 0.00 | 0.00 | 0.00 | 70 | 1015.8 |
| 20260503110737 | 3 | 252 | 0.0 | 0.0 | 0.00 | 0.00 | 0.00 | 80 | 1015.4 |
| 20260503110323 | 2 | 250 | 0.0 | 0.0 | 0.00 | 0.00 | 0.00 | 81 | 1015.4 |
| 20260503090417 | 2 | 170 | 0.0 | 0.0 | 0.00 | 0.00 | 0.00 | 81 | 1015.4 |
| 20260503081523 | 2 | 165 | 0.0 | 0.0 | 0.00 | 0.00 | 0.00 | 82 | 1015.5 |
| 20260503081124 | 2 | 165 | 0.0 | 0.0 | 0.00 | 0.00 | 0.00 | 82 | 1015.5 |
| 20260503080718 | 2 | 166 | 0.0 | 0.0 | 0.00 | 0.00 | 0.00 | 82 | 1015.4 |
| 20260503080316 | 2 | 165 | 0.0 | 0.0 | 0.00 | 0.00 | 0.00 | 82 | 1015.5 |
| 20260503072522 | 1 | 152 | 0.0 | 0.0 | 0.00 | 0.00 | 0.00 | 83 | 1015.6 |
| 20260503072113 | 1 | 153 | 0.0 | 0.0 | 0.00 | 0.00 | 0.00 | 83 | 1015.6 |
| 20260503071719 | 1 | 150 | 0.0 | 0.0 | 0.00 | 0.00 | 0.00 | 83 | 1015.6 |
| 20260503071315 | 1 | 156 | 0.0 | 0.0 | 0.00 | 0.00 | 0.00 | 83 | 1015.6 |
| 20260503070354 | 1 | 156 | 0.0 | 0.0 | 0.00 | 0.00 | 0.00 | 83 | 1015.6 |
| 20260503055033 | 2 | 161 | 0.0 | 0.0 | 0.00 | 0.00 | 0.00 | 82 | 1016.0 |
| 20260503054634 | 2 | 157 | 0.0 | 0.0 | 0.00 | 0.00 | 0.00 | 82 | 1016.0 |
| 20260503054222 | 2 | 149 | 0.0 | 0.0 | 0.00 | 0.00 | 0.00 | 82 | 1016.0 |
| 20260503053816 | 2 | 157 | 0.0 | 0.0 | 0.00 | 0.00 | 0.00 | 82 | 1016.0 |
| 20260503053416 | 2 | 161 | 0.0 | 0.0 | 0.00 | 0.00 | 0.00 | 82 | 1016.0 |
| 20260503052441 | 2 | 161 | 0.0 | 0.0 | 0.00 | 0.00 | 0.00 | 82 | 1016.1 |
| 20260503052029 | 2 | 163 | 0.0 | 0.0 | 0.00 | 0.00 | 0.00 | 82 | 1016.1 |
| 20260503051624 | 2 | 163 | 0.0 | 0.0 | 0.00 | 0.00 | 0.00 | 82 | 1016.1 |
| 20260503051215 | 2 | 163 | 0.0 | 0.0 | 0.00 | 0.00 | 0.00 | 82 | 1016.1 |
| 20260503050805 | 2 | 164 | 0.0 | 0.0 | 0.00 | 0.00 | 0.00 | 81 | 1016.1 |
| 20260503045841 | 3 | 157 | 0.0 | 0.0 | 0.00 | 0.03 | 0.00 | 80 | 1016.2 |
| 20260503045432 | 3 | 153 | 0.0 | 0.0 | 0.00 | 0.03 | 0.00 | 80 | 1016.2 |
| 20260503045035 | 3 | 157 | 0.0 | 0.0 | 0.00 | 0.03 | 0.00 | 79 | 1016.3 |
| 20260503044626 | 3 | 157 | 0.0 | 0.0 | 0.00 | 0.03 | 0.00 | 79 | 1016.3 |
| 20260503044212 | 3 | 155 | 0.0 | 0.0 | 0.00 | 0.03 | 0.00 | 79 | 1016.3 |
| 20260503043811 | 3 | 157 | 0.0 | 0.0 | 0.00 | 0.03 | 0.00 | 79 | 1016.3 |
| 20260503043355 | 3 | 157 | 0.0 | 0.0 | 0.00 | 0.03 | 0.00 | 78 | 1016.2 |
| 20260503042947 | 3 | 161 | 0.0 | 0.0 | 0.00 | 0.03 | 0.00 | 77 | 1016.2 |
| 20260503042543 | 3 | 152 | 0.0 | 0.0 | 0.00 | 0.03 | 0.00 | 77 | 1016.2 |
| 20260503042127 | 3 | 154 | 0.0 | 0.0 | 0.00 | 0.03 | 0.00 | 77 | 1016.2 |
| 20260503041719 | 3 | 160 | 0.0 | 0.0 | 0.00 | 0.03 | 0.00 | 76 | 1016.3 |
| 20260503041305 | 3 | 159 | 0.0 | 0.0 | 0.00 | 0.03 | 0.00 | 76 | 1016.3 |
| 20260503040909 | 4 | 156 | 0.0 | 0.0 | 0.00 | 0.03 | 0.00 | 75 | 1016.3 |
| 20260503035955 | 4 | 176 | 0.0 | 0.0 | 0.00 | 0.03 | 0.03 | 74 | 1016.4 |
| 20260503035539 | 4 | 178 | 0.0 | 0.0 | 0.00 | 0.03 | 0.03 | 74 | 1016.4 |
| 20260503035142 | 4 | 178 | 0.0 | 0.0 | 0.00 | 0.03 | 0.03 | 74 | 1016.4 |
| 20260503034742 | 5 | 179 | 0.0 | 0.0 | 0.00 | 0.03 | 0.03 | 73 | 1016.4 |
| 20260503034330 | 5 | 180 | 0.0 | 0.0 | 0.00 | 0.03 | 0.03 | 73 | 1016.5 |
| 20260503033920 | 5 | 180 | 0.0 | 0.0 | 0.00 | 0.03 | 0.03 | 73 | 1016.5 |
| 20260503033525 | 5 | 180 | 0.0 | 0.0 | 0.00 | 0.03 | 0.03 | 73 | 1016.5 |
| 20260503033109 | 5 | 180 | 0.0 | 0.0 | 0.00 | 0.03 | 0.03 | 73 | 1016.6 |
| 20260503032703 | 5 | 180 | 0.0 | 0.0 | 0.00 | 0.03 | 0.03 | 73 | 1016.6 |
| 20260503032250 | 5 | 180 | 0.0 | 0.0 | 0.00 | 0.03 | 0.03 | 73 | 1016.7 |
| 20260503031854 | 5 | 180 | 0.0 | 0.0 | 0.00 | 0.03 | 0.03 | 72 | 1016.6 |
| 20260503030934 | 5 | 180 | 0.0 | 0.0 | 0.00 | 0.03 | 0.03 | 73 | 1016.6 |
| 20260503030528 | 5 | 180 | 0.0 | 0.0 | 0.00 | 0.03 | 0.03 | 72 | 1016.6 |
| 20260503030126 | 5 | 180 | 0.0 | 0.0 | 0.00 | 0.03 | 0.03 | 72 | 1016.7 |
| 20260503025224 | 5 | 180 | 0.0 | 0.0 | 0.00 | 0.03 | 0.03 | 73 | 1016.7 |
| 20260503024813 | 5 | 180 | 0.0 | 0.0 | 0.00 | 0.03 | 0.03 | 73 | 1016.7 |
| 20260503024409 | 5 | 180 | 0.0 | 0.0 | 0.00 | 0.03 | 0.03 | 72 | 1016.8 |
| 20260503023956 | 5 | 180 | 0.0 | 0.0 | 0.00 | 0.03 | 0.03 | 72 | 1016.9 |
| 20260503023044 | 5 | 180 | 0.0 | 0.0 | 0.00 | 0.03 | 0.03 | 71 | 1016.9 |
| 20260503022641 | 5 | 180 | 0.0 | 0.0 | 0.00 | 0.03 | 0.03 | 72 | 1016.9 |
| 20260503022231 | 5 | 180 | 0.0 | 0.0 | 0.00 | 0.03 | 0.03 | 72 | 1017.0 |
| 20260503021821 | 5 | 180 | 0.0 | 0.0 | 0.00 | 0.03 | 0.03 | 72 | 1017.0 |
| 20260503021427 | 6 | 182 | 0.0 | 0.0 | 0.00 | 0.03 | 0.03 | 72 | 1016.9 |
| 20260503020456 | 6 | 182 | 0.0 | 0.0 | 0.00 | 0.03 | 0.03 | 70 | 1017.0 |
| 20260503020053 | 6 | 180 | 0.0 | 0.0 | 0.00 | 0.03 | 0.03 | 69 | 1016.9 |
| 20260503015643 | 6 | 180 | 0.0 | 0.0 | 0.00 | 0.03 | 0.03 | 69 | 1016.9 |
| 20260503015249 | 6 | 182 | 0.0 | 0.0 | 0.00 | 0.03 | 0.03 | 68 | 1016.9 |
| 20260503014838 | 6 | 181 | 0.0 | 1.6 | 0.00 | 0.03 | 0.03 | 68 | 1016.9 |
| 20260503014421 | 6 | 182 | 0.0 | 1.6 | 0.00 | 0.03 | 0.03 | 68 | 1016.9 |
| 20260503013450 | 6 | 182 | 0.0 | 0.0 | 0.00 | 0.03 | 0.03 | 68 | 1016.9 |
| 20260503013043 | 6 | 182 | 0.0 | 0.0 | 0.00 | 0.03 | 0.03 | 67 | 1016.9 |
| 20260503012643 | 6 | 182 | 0.0 | 0.0 | 0.00 | 0.03 | 0.03 | 66 | 1016.9 |
| 20260503012230 | 6 | 182 | 0.0 | 0.0 | 0.00 | 0.03 | 0.03 | 66 | 1016.9 |
| 20260503011820 | 6 | 182 | 0.0 | 1.6 | 0.00 | 0.03 | 0.03 | 66 | 1016.9 |
| 20260503010916 | 6 | 182 | 0.0 | 0.0 | 0.00 | 0.03 | 0.03 | 67 | 1016.9 |
| 20260503010500 | 6 | 182 | 0.0 | 0.0 | 0.00 | 0.03 | 0.03 | 66 | 1016.9 |
| 20260503010050 | 6 | 182 | 0.0 | 0.0 | 0.00 | 0.03 | 0.03 | 65 | 1016.9 |
| 20260503005140 | 6 | 182 | 0.0 | 0.0 | 0.00 | 0.03 | 0.03 | 66 | 1016.9 |
| 20260503004727 | 6 | 182 | 0.0 | 0.0 | 0.00 | 0.03 | 0.03 | 64 | 1016.9 |
| 20260503003755 | 6 | 182 | 0.0 | 0.0 | 0.00 | 0.03 | 0.03 | 63 | 1016.7 |
| 20260503003346 | 6 | 182 | 0.0 | 0.0 | 0.00 | 0.03 | 0.03 | 61 | 1016.8 |
| 20260503002935 | 7 | 183 | 0.0 | 4.8 | 0.00 | 0.03 | 0.03 | 61 | 1016.7 |
| 20260503002533 | 7 | 226 | 0.0 | 1.6 | 0.00 | 0.03 | 0.03 | 62 | 1016.7 |
| 20260503002121 | 7 | 200 | 0.0 | 1.6 | 0.00 | 0.03 | 0.03 | 62 | 1016.7 |